Regional Weather Roundup
Issued by NWS

Home | Current Version | Previous Version | Graphics & Text | Print | Product List | Glossary On
Versions: 1 2 3 4 5 6 7 8 9 10 11 12 13 14 15 16 17 18 19 20 21 22 23 24 25 26 27 28 29 30 31 32 33 34 35 36 37 38 39 40 41 42 43 44 45 46 47 48 49 50
000
ASUS43 KFSD 271502
RWRSD

WEATHER ROUNDUP FOR SOUTH DAKOTA
NATIONAL WEATHER SERVICE SIOUX FALLS SD
1000 AM CDT MON JUL 27 2015

NOTE: "FAIR" INDICATES FEW OR NO CLOUDS BELOW 12,000 FEET WITH NO
SIGNIFICANT WEATHER AND/OR OBSTRUCTIONS TO VISIBILITY.


SDZ001>005-009-010-012>017-271600-
NORTHWEST AND NORTH CENTRAL SOUTH DAKOTA

CITY           SKY/WX    TMP DP  RH WIND       PRES   REMARKS
BUFFALO          N/A     74  60  61 S18G24    29.70F
FAITH            N/A     76  61  59 SE24G32   29.77F
MOBRIDGE       SUNNY     80  71  74 S20       29.76S
$$

SDZ012>016-024>037-041>051-057-063-072>074-271600-
SOUTHWEST AND SOUTH CENTRAL SOUTH DAKOTA

CITY           SKY/WX    TMP DP  RH WIND       PRES   REMARKS
RAPID CTY ARPT MOSUNNY   75  62  64 SE14      29.78F
PIERRE         MOSUNNY   78  70  76 SE14      29.81R
CUSTER         SUNNY     77  53  43 W5        29.95F
ELLSWORTH AFB  MOSUNNY   75  62  62 S14       29.77F
PHILIP         SUNNY     78  65  63 SE15      29.79F
PINE RIDGE     SUNNY     76  62  62 VRB5G18   29.83F
WINNER         FAIR      83  63  50 SE15      29.85S
$$

SDZ004>011-016>023-039-040-271600-
NORTHEAST SOUTH DAKOTA

CITY           SKY/WX    TMP DP  RH WIND       PRES   REMARKS
ABERDEEN       CLOUDY    76  72  87 SE10      29.83F
WATERTOWN      MOSUNNY   80  70  71 S16       29.88S
BROOKINGS      MOSUNNY   79  73  83 SE14      29.92S
SISSETON         N/A     75  72  90 S10       29.85F
$$

SDZ017-020-022-023-036>040-048>070-271600-
SOUTHEAST SOUTH DAKOTA

CITY           SKY/WX    TMP DP  RH WIND       PRES   REMARKS
SIOUX FALLS    PTSUNNY   77  73  87 NE6       29.91S
HURON          CLOUDY    76  74  93 S12       29.83S
CHAMBERLAIN    SUNNY     80  71  72 SE13      29.83F
MITCHELL       CLOUDY    80  76  87 SE8       29.85F
YANKTON        MOSUNNY   79  66  65 E7        29.85S
$$

ABBREVIATIONS USED IN REMARKS
   TC - TEMPERATURE IN CELSIUS
  WCI - WIND CHILL INDEX
   HX - HEAT INDEX
  VSB - VISIBILITY



USA.gov is the U.S. government's official web portal to all federal, state and local government web resources and services.